Regional Weather Roundup
Issued by NWS

Home | Current Version | Previous Version | Text Only | Print | Product List | Glossary On
Versions: 1 2 3 4 5 6 7 8 9 10 11 12 13 14 15 16 17 18 19 20 21 22 23 24 25 26 27 28 29 30 31 32 33 34 35 36 37 38 39 40 41 42 43 44 45 46 47 48 49 50
000
ASUS45 KREV 020510
RWRNV
NEVADA REGIONAL WEATHER ROUNDUP
NATIONAL WEATHER SERVICE RENO NV
1000 PM PDT WED JUL 01 2015

NOTE: "FAIR" INDICATES FEW OR NO CLOUDS BELOW 12,000 FEET WITH NO
SIGNIFICANT WEATHER AND/OR OBSTRUCTIONS TO VISIBILITY.

NVZ001-003-004-020600-
WESTERN NEVADA

CITY           SKY/WX    TMP DP  RH WIND       PRES   REMARKS
RENO           CLOUDY    86  45  23 NW8G20    30.11R
CARSON CITY    FAIR      77  48  36 W3        30.14R
MINDEN         FAIR      66  50  55 SE7       30.15R
SLIDE MTN        N/A     63  43  48 N10         N/A
PYRAMID LAKE     N/A     84 N/A N/A S5          N/A
FALLON         CLOUDY    87  50  27 W12       30.03R
LOVELOCK       CLOUDY    91  49  23 NW10G21   30.00R
HAWTHORNE      MOCLDY    79  61  53 SE22G31   30.19R
$$

NVZ002-CAZ072-073-020600-
NORTHERN AND CENTRAL SIERRA

CITY           SKY/WX    TMP DP  RH WIND       PRES   REMARKS
S. LAKE TAHOE  MOCLDY    69  55  60 CALM      30.28R
SQUAW VLY 8000 NOT AVBL
SUSANVILLE     CLEAR     82  48  30 W14       30.09R
BLUE CANYON    PTCLDY    72  49  44 NE5       30.23S
BRIDGEPORT     LGT RAIN  63  53  70 E6        30.36R
$$

NVZ030-031-036-020600-
NORTHERN NEVADA

CITY           SKY/WX    TMP DP  RH WIND       PRES   REMARKS
ELKO           PTCLDY    78  47  33 CALM      30.12R
WINNEMUCCA     PTCLDY    80  41  24 CALM      30.03
WENDOVER       MOCLDY    88  46  23 CALM      30.04R
$$

NVZ035-037-020600-
CENTRAL NEVADA

CITY           SKY/WX    TMP DP  RH WIND       PRES   REMARKS
ELY            CLOUDY    72  49  44 N10       30.27R
EUREKA           N/A     73  53  49 VRB6      30.28R
$$

NVZ013-014-020600-
SOUTH CENTRAL NEVADA

CITY           SKY/WX    TMP DP  RH WIND       PRES   REMARKS
TONOPAH        CLOUDY    75  53  46 N21       30.16S
$$

NVZ017-020-022-020600-
SOUTHERN NEVADA

CITY           SKY/WX    TMP DP  RH WIND       PRES   REMARKS
LAS VEGAS      MOCLDY    98  52  21 S15       29.80R
N. LAS VEGAS   CLOUDY    98  54  22 S6        29.82R
NELLIS AFB     CLOUDY    93  60  32 E16       29.81R
HENDERSON      MOCLDY    94  55  26 SW17      29.89R
MERCURY        CLOUDY    91  49  23 SW9       29.95F
$$


USA.gov is the U.S. government's official web portal to all federal, state and local government web resources and services.